Location: Gad�tanya
(48.0500°N, 20.8500°E)
Time: 22:57:55
(UTC+00:00)

Cosmos 2322 Rocket - Pass Details

Date: 05 July 2020
Orbit: 832 x 851 km, 71.0° (Epoch: 05 August)

Event Time Altitude Azimuth Distance (km) Brightness Sun altitude
Rises 19:55:09 0° 230° (SW) 3,368 5.3 -10.1°
Reaches altitude 10° 19:57:43 10° 237° (WSW) 2,439 4.7 -10.3°
Maximum altitude 20:02:58 41° 307° (NW) 1,205 3.7 -10.9°
Drops below altitude 10° 20:08:16 10° 17° (NNE) 2,458 5.2 -11.4°
Sets 20:10:53 0° 25° (NNE) 3,398 5.8 -11.6°
